Regional Weather Roundup
Issued by NWS

Home | Current Version | Previous Version | Graphics & Text | Print | Product List | Glossary On
Versions: 1 2 3 4 5 6 7 8 9 10 11 12 13 14 15 16 17 18 19 20 21 22 23 24 25 26 27 28 29 30 31 32 33 34 35 36 37 38 39 40 41 42 43 44 45 46 47 48 49 50
000
ASUS43 KBIS 252010
RWRND
NORTH DAKOTA REGIONAL WEATHER ROUNDUP
NATIONAL WEATHER SERVICE EASTERN NORTH DAKOTA/GRAND FORKS ND
300 PM CDT THU MAY 25 2017

  NOTE: "FAIR" INDICATES FEW OR NO CLOUDS BELOW 12,000 FEET WITH NO
  SIGNIFICANT WEATHER AND/OR OBSTRUCTIONS TO VISIBILITY.

NDZ001>003-009>011-017-252100-
...NORTHWEST NORTH DAKOTA...

CITY           SKY/WX    TMP DP  RH WIND       PRES   REMARKS
WILLISTON      CLOUDY    61  45  55 W17G23    29.39R
MINOT          FAIR      70  42  36 W16G29    29.38R
MINOT AFB      PTSUNNY   67  44  43 W20G30    29.37R
$$

NDZ018>021-031>035-040>046-252100-
...SOUTHWEST NORTH DAKOTA...

CITY           SKY/WX    TMP DP  RH WIND       PRES   REMARKS
BISMARCK       FAIR      75  36  24 W10G23    29.43S
DICKINSON      FAIR      64  40  41 W29G39    29.46R
GARRISON         N/A     69  42  37 W23G33    29.40R
HETTINGER      FAIR      69  33  26 W21G33    29.50R
$$

NDZ004>008-012>016-024-026-027-054-252100-
...NORTHEAST NORTH DAKOTA...

CITY           SKY/WX    TMP DP  RH WIND       PRES   REMARKS
GRAND FORKS    CLOUDY    68  47  46 SE21G33   29.48S
GRAND FORKS AF CLOUDY    65  47  51 S20G30    29.48S
DEVILS LAKE    CLOUDY    65  48  54 S17G26    29.44F
$$

NDZ022-023-025-028>030-036>039-047>053-252100-
...SOUTHEAST NORTH DAKOTA...

CITY           SKY/WX    TMP DP  RH WIND       PRES   REMARKS
JAMESTOWN      PTSUNNY   67  49  52 SE12G22   29.43S
FARGO          CLOUDY    67  48  50 SE24G35   29.49F
WAHPETON       CLOUDY    64  46  52 SE23G29   29.51F
$$



USA.gov is the U.S. government's official web portal to all federal, state and local government web resources and services.